WGS F2 (USA 204)

Last updated on Sun Jun 21 2026 00:03:04 GMT+0000 (Coordinated Universal Time)

1 34713U 09017A 26171.26294977 .00000063 00000+0 00000+0 0 9995 2 34713 0.0187 14.3909 0000041 351.5807 54.6689 1.00272406 45645
UTC large
Height (km)
Speed (km/s)
/
Latitude / Longitude
Inclination (degrees)
Orbital Period (minutes)
Azimuth
Elevation
Range (km)
Doppler Factor

Next 0 passes for location: London (51.5072 / 0.1276)

No passes found over London.
WGS F2 (USA 204)